< < Back
Terminal Aerodrome Forecast


Current Version              Previous Versions:   1  2  3  4  5  6  7  8  9  

Terminal Aerodrome Forecast

670
FTUS42 KTAE 051100
TAFVLD
TAF
KVLD 051121Z 0512/0612 20005KT 5SM BR OVC013
     FM051600 20008KT 3SM BR OVC008
     FM052200 30010KT 6SM -RA BR OVC014
     FM060400 34009KT P6SM OVC025=

Latest METAR

788
SAUS70 KWBC 061100 RRA
MTRVLD
METAR KVLD 061053Z AUTO 02010KT 10SM OVC016 07/04 A3028 RMK AO2 SLP263
T00670039 TSNO


USA.gov is the U.S. government's official web portal to all federal, state and local government web resources and services.